Weather History for Clinton, MO

Change the Weather History Date:

Saturday, January 5, 2013

  Actual Average (KSZL) Record (KSZL)
Temperature  
Mean Temperature 36 °F -  
Max Temperature 41 °F 37 °F 64 °F (2008)
Min Temperature 32 °F 21 °F -2 °F (1999)
Degree Days  
Heating Degree Days 28    
Moisture  
Dew Point 31 °F    
Average Humidity 80    
Maximum Humidity 93    
Minimum Humidity 70    
Precipitation  
Precipitation 0.00 in - - ()
Sea Level Pressure  
Sea Level Pressure 30.20 in    
Wind  
Wind Speed 6 mph (SSW)    
Max Wind Speed 13 mph    
Max Gust Speed 18 mph    
Visibility 10 miles    
Events      
Averages and records for this station are not official NWS values.
T = Trace of Precipitation, MM = Missing Value Source: NWS Daily Summary

Daily Weather History Graph

Daily Weather History Graph

Search for Another Location

Airport:

Trip Planner

Search our weather history database for the weather conditions in past years. The results will help you decide how hot, cold, wet, or windy it might be!

Date:

Astronomy

Jan. 05, 2013 Rise Set
Actual Time 7:32 AM CST 5:08 PM CST
Civil Twilight 7:02 AM CST 5:38 PM CST
Nautical Twilight 6:29 AM CST 6:11 PM CST
Astronomical Twilight 5:57 AM CST 6:43 PM CST
Moon 12:42 AM CST (1/5) 11:56 AM CST (1/5)
Length of Visible Light 10h 35m
Length of Day
9h 36m
Last Quarter, 44% of the Moon is Illuminated
Jan 5
Last Quarter
Jan 11
New
Jan 18
First Quarter
Jan 26
Full
Feb 3
Last Quarter

Hourly Weather History & Observations

Time (CST) Temp. Windchill Dew Point Humidity Pressure Visibility Wind Dir Wind Speed Gust Speed Precip Events Conditions
12:15 AM 33.8 °F 27.7 °F 26.6 °F 75% 30.29 in 10.0 mi SSW 6.9 mph - N/A   Clear
12:35 AM 32.0 °F 26.4 °F 26.6 °F 80% 30.28 in 10.0 mi SSW 5.8 mph - N/A   Clear
12:55 AM 32.0 °F - 26.6 °F 80% 30.28 in 10.0 mi Calm Calm - N/A   Clear
1:15 AM 32.0 °F - 26.6 °F 80% 30.27 in 10.0 mi Calm Calm - N/A   Scattered Clouds
1:35 AM 32.0 °F - 26.6 °F 80% 30.27 in 10.0 mi Calm Calm - N/A   Partly Cloudy
1:55 AM 32.0 °F - 26.6 °F 80% 30.27 in 10.0 mi Calm Calm - N/A   Clear
2:15 AM 32.0 °F - 26.6 °F 80% 30.26 in 10.0 mi Calm Calm - N/A   Clear
2:35 AM 32.0 °F - 26.6 °F 80% 30.27 in 10.0 mi Calm Calm - N/A   Clear
2:55 AM 32.0 °F - 26.6 °F 80% 30.27 in 10.0 mi Calm Calm - N/A   Clear
3:15 AM 32.0 °F - 26.6 °F 80% 30.26 in 10.0 mi Calm Calm - N/A   Clear
3:35 AM 32.0 °F - 26.6 °F 80% 30.27 in 10.0 mi Calm Calm - N/A   Partly Cloudy
3:55 AM 32.0 °F - 26.6 °F 80% 30.26 in 10.0 mi Calm Calm - N/A   Partly Cloudy
4:15 AM 32.0 °F 26.4 °F 26.6 °F 80% 30.25 in 10.0 mi South 5.8 mph - N/A   Clear
4:35 AM 32.0 °F 25.6 °F 26.6 °F 80% 30.25 in 10.0 mi SSW 6.9 mph - N/A   Mostly Cloudy
4:55 AM 33.8 °F 27.7 °F 26.6 °F 75% 30.25 in 10.0 mi SSW 6.9 mph - N/A   Overcast
5:15 AM 33.8 °F 27.7 °F 28.4 °F 81% 30.26 in 10.0 mi SSW 6.9 mph - N/A   Overcast
5:35 AM 33.8 °F 27.7 °F 28.4 °F 81% 30.25 in 10.0 mi SW 6.9 mph - N/A   Mostly Cloudy
5:55 AM 35.6 °F 28.0 °F 28.4 °F 75% 30.26 in 10.0 mi SW 10.4 mph 16.1 mph N/A   Partly Cloudy
6:15 AM 35.6 °F 30.7 °F 28.4 °F 75% 30.26 in 10.0 mi SSW 5.8 mph - N/A   Scattered Clouds
6:35 AM 35.6 °F 29.2 °F 30.2 °F 81% 30.26 in 10.0 mi SW 8.1 mph - N/A   Mostly Cloudy
7:35 AM 37.4 °F 30.8 °F 32.0 °F 81% 30.25 in 10.0 mi SSW 9.2 mph - N/A   Mostly Cloudy
7:55 AM 37.4 °F 32.1 °F 32.0 °F 81% 30.25 in 10.0 mi South 6.9 mph - N/A   Mostly Cloudy
8:15 AM 37.4 °F 32.1 °F 32.0 °F 81% 30.25 in 10.0 mi South 6.9 mph - N/A   Overcast
8:35 AM 37.4 °F 32.8 °F 32.0 °F 81% 30.25 in 10.0 mi South 5.8 mph - N/A   Overcast
8:55 AM 37.4 °F 32.8 °F 32.0 °F 81% 30.25 in 10.0 mi South 5.8 mph - N/A   Overcast
9:15 AM 37.4 °F 30.8 °F 32.0 °F 81% 30.24 in 10.0 mi South 9.2 mph - N/A   Overcast
9:55 AM 39.2 °F 33.0 °F 32.0 °F 75% 30.24 in 10.0 mi SSW 9.2 mph - N/A   Mostly Cloudy
10:15 AM 39.2 °F 33.0 °F 32.0 °F 75% 30.23 in 9.0 mi South 9.2 mph - N/A   Mostly Cloudy
10:55 AM 41.0 °F 35.8 °F 32.0 °F 70% 30.22 in 9.0 mi SSW 8.1 mph 17.3 mph N/A   Overcast
11:15 AM 39.2 °F 31.6 °F 32.0 °F 75% 30.22 in 9.0 mi SSW 12.7 mph 18.4 mph N/A   Overcast
11:35 AM 39.2 °F 31.6 °F 32.0 °F 75% 30.21 in 10.0 mi SSW 12.7 mph 18.4 mph N/A   Overcast
11:55 AM 39.2 °F 32.5 °F 33.8 °F 81% 30.20 in 8.0 mi SW 10.4 mph - N/A   Overcast
12:15 PM 39.2 °F 33.6 °F 33.8 °F 81% 30.19 in 8.0 mi SSW 8.1 mph - N/A   Overcast
12:35 PM 39.2 °F 33.0 °F 33.8 °F 81% 30.18 in 9.0 mi SW 9.2 mph - N/A   Overcast
12:55 PM 39.2 °F 33.6 °F 33.8 °F 81% 30.17 in 9.0 mi SSW 8.1 mph - N/A   Overcast
1:15 PM 39.2 °F 33.6 °F 33.8 °F 81% 30.15 in 9.0 mi SSW 8.1 mph - N/A   Overcast
1:35 PM 39.2 °F 33.0 °F 33.8 °F 81% 30.14 in 9.0 mi SSW 9.2 mph - N/A   Overcast
1:55 PM 41.0 °F 34.3 °F 33.8 °F 76% 30.14 in 8.0 mi SSW 11.5 mph - N/A   Overcast
2:15 PM 41.0 °F 35.8 °F 33.8 °F 76% 30.12 in 9.0 mi SSW 8.1 mph - N/A   Overcast
2:35 PM 41.0 °F 34.7 °F 33.8 °F 76% 30.12 in 9.0 mi SSW 10.4 mph - N/A   Overcast
2:55 PM 41.0 °F 35.2 °F 33.8 °F 76% 30.11 in 9.0 mi SSW 9.2 mph - N/A   Overcast
3:15 PM 41.0 °F 34.7 °F 33.8 °F 76% 30.11 in 9.0 mi SSW 10.4 mph - N/A   Overcast
3:35 PM 41.0 °F 35.8 °F 33.8 °F 76% 30.12 in 9.0 mi SSW 8.1 mph - N/A   Overcast
3:55 PM 41.0 °F 35.2 °F 32.0 °F 70% 30.13 in 9.0 mi SW 9.2 mph 16.1 mph N/A   Overcast
4:15 PM 41.0 °F 35.8 °F 32.0 °F 70% 30.13 in 10.0 mi SW 8.1 mph - N/A   Overcast
4:55 PM 41.0 °F 35.8 °F 32.0 °F 70% 30.14 in 9.0 mi SSW 8.1 mph - N/A   Overcast
5:15 PM 39.2 °F 33.6 °F 32.0 °F 75% 30.15 in 9.0 mi SW 8.1 mph - N/A   Mostly Cloudy
5:35 PM 39.2 °F 33.6 °F 32.0 °F 75% 30.15 in 10.0 mi SSW 8.1 mph - N/A   Overcast
5:55 PM 39.2 °F 33.6 °F 32.0 °F 75% 30.15 in 10.0 mi SSW 8.1 mph - N/A   Mostly Cloudy
6:15 PM 37.4 °F 32.1 °F 32.0 °F 81% 30.14 in 10.0 mi SSW 6.9 mph - N/A   Partly Cloudy
6:35 PM 37.4 °F 32.1 °F 32.0 °F 81% 30.14 in 10.0 mi SSW 6.9 mph - N/A   Clear
6:55 PM 37.4 °F 31.4 °F 32.0 °F 81% 30.14 in 10.0 mi SSW 8.1 mph - N/A   Clear
7:15 PM 37.4 °F 32.8 °F 32.0 °F 81% 30.15 in 10.0 mi SSW 5.8 mph - N/A   Partly Cloudy
7:35 PM 37.4 °F 32.1 °F 32.0 °F 81% 30.14 in 10.0 mi South 6.9 mph - N/A   Partly Cloudy
7:55 PM 37.4 °F 31.4 °F 32.0 °F 81% 30.14 in 10.0 mi South 8.1 mph - N/A   Clear
8:15 PM 37.4 °F 31.4 °F 32.0 °F 81% 30.14 in 10.0 mi SSW 8.1 mph - N/A   Clear
8:35 PM 37.4 °F 31.4 °F 32.0 °F 81% 30.14 in 10.0 mi SSW 8.1 mph - N/A   Clear
8:55 PM 37.4 °F 31.4 °F 32.0 °F 81% 30.15 in 10.0 mi SW 8.1 mph - N/A   Clear
9:15 PM 35.6 °F 29.2 °F 32.0 °F 87% 30.16 in 10.0 mi WSW 8.1 mph - N/A   Clear
9:35 PM 35.6 °F 28.6 °F 32.0 °F 87% 30.16 in 10.0 mi SW 9.2 mph - N/A   Clear
9:55 PM 35.6 °F 28.6 °F 32.0 °F 87% 30.16 in 10.0 mi SW 9.2 mph - N/A   Clear
10:15 PM 33.8 °F 27.7 °F 30.2 °F 87% 30.16 in 9.0 mi SW 6.9 mph - N/A   Clear
10:35 PM 32.0 °F 24.8 °F 30.2 °F 93% 30.17 in 9.0 mi WSW 8.1 mph - N/A   Clear
10:55 PM 32.0 °F 24.8 °F 30.2 °F 93% 30.17 in 9.0 mi WSW 8.1 mph - N/A   Clear
11:15 PM 32.0 °F 24.8 °F 30.2 °F 93% 30.18 in 9.0 mi WSW 8.1 mph - N/A   Clear
11:35 PM 32.0 °F 24.8 °F 30.2 °F 93% 30.18 in 8.0 mi WSW 8.1 mph - N/A   Clear
11:55 PM 32.0 °F 25.6 °F 28.4 °F 87% 30.18 in 9.0 mi WSW 6.9 mph - N/A   Clear